Location: Lecco
(45.8566°N, 9.3977°E)
Time: 14:26:59
(UTC+02:00)

Courier 1B Rocket - Pass Details

Date: 29 August 2019
Orbit: 920 x 1202 km, 28.2° (Epoch: 22 October)

Event Time Altitude Azimuth Distance (km) Brightness Sun altitude
Rises 02:59:18 0° 229° (SW) 3,731 - -30.6°
Reaches altitude 10° 03:02:55 10° 211° (SSW) 2,837 - -30.3°
Maximum altitude 03:07:12 17° 172° (S) 2,400 - -29.9°
Drops below altitude 10° 03:11:40 10° 134° (SE) 2,970 - -29.6°
Exits shadow 03:11:50 10° 133° (SE) 3,009 7.4 -29.5°
Sets 03:15:35 0° 116° (ESE) 3,983 8.3 -29.2°
